sat.trackr.live / text

‹ back to catalog

STARLINK-33949

NORAD 64105 · 2025-110K

PAYLOAD ACTIVE UNKNOWN

§ Identity

Operator
Country
US
Launch date
2025-05-23
Launch site
AFWTR
Launch vehicle
Mass (kg)
RCS (m²)

Purposes: comms

External: N2YO · Heavens-Above · Gunter

§ Orbital elements

Epoch: 2026-05-25T02:36:19.646208Z

Period
94.01 min
Inclination
53.1591°
Eccentricity
0.0001104
Mean motion
15.31694682 rev/d
Perigee alt
470.0 km
Apogee alt
471.5 km
Semi-major
6,848.9 km
B*
2.9197e-4
RAAN
31.7287°
Arg perigee
86.3103°
Mean anomaly
273.8025°
Rev number
5,758

§ Raw data

STARLINK-339491 64105U 25110K   26145.10856072  .00008704  00000+0  29197-3 0  99912 64105  53.1591  31.7287 0001104  86.3103 273.8025 15.31694682 57584

JSON: /api/v1/satellites/64105 · /tle

For live sub-satellite position, see the globe view (requires WebGL).

§ Visibility from observer

Set your observer location to see the next 7 days of passes ≥ 10°. The values pass through the URL so the page stays shareable.

No JS? Fill the form by hand. The geolocation button needs JavaScript.